Regional Weather Roundup
Issued by NWS Portland, ME

Current Version | Previous Version | Text Only | Print | Product List | Glossary Off
Versions: 1 2 3 4 5 6 7 8 9 10 11 12 13 14 15 16 17 18 19 20 21 22 23 24 25 26 27 28 29 30 31 32 33 34 35 36 37 38 39 40 41 42 43 44 45 46 47 48 49 50
481 ASUS41 KGYX 231410 RWRGYX WEATHER ROUNDUP FOR MAINE AND NEW HAMPSHIRE NATIONAL WEATHER SERVICE GRAY ME 1000 AM EDT SAT MAR 23 2019 MEZ002-005-006-010-012-015-018-020-021-024-026-027-029-231500- MAINE CITY SKY/WX TMP DP RH WIND PRES REMARKS PORTLAND PTSUNNY 40 26 57 NW23G37 29.36R SANFORD FAIR 38 24 57 W22G33 29.41R BAR HARBOR CLOUDY 38 33 82 NW7G16 29.20R WISCASSET CLOUDY 41 33 73 NW12G25 29.31R ROCKLAND CLOUDY 40 32 73 NW10G21 29.25R FRYEBURG FAIR 37 20 50 NW14G24 29.40R LEWISTONAUBURN CLOUDY 38 25 59 NW18G33 29.35R AUGUSTA CLOUDY 40 30 67 NW15G22 29.30R WATERVILLE PTSUNNY 40 29 64 N15G26 29.26R BANGOR CLOUDY 39 32 76 NW20G25 29.21R GREENVILLE N/A 33 29 85 NW20G32 29.19R MILLINOCKET NOT AVBL HOULTON CLOUDY 35 32 88 NW17G25 29.11R PRESQUE ISLE LGT RAIN 35 32 88 NW18G28 29.15R FRENCHVILLE LGT SNOW 36 29 75 N29G36 29.14R CARIBOU LGT SNOW 36 31 82 NW21G29 29.13R $$ NHZ002-005-008-009-011-012-014-231500- NEW HAMPSHIRE CITY SKY/WX TMP DP RH WIND PRES REMARKS PORTSMOUTH PTSUNNY 38 22 52 W30G39 29.42R ROCHESTER FAIR 36 23 59 NW21G39 29.42R NASHUA PTSUNNY 36 24 62 W22G30 29.53R MANCHESTER FAIR 37 20 50 NW24G37 29.51R CONCORD FAIR 34 22 61 W16G38 29.52R LACONIA FAIR 33 21 61 VRB7G24 29.50R PLYMOUTH FAIR 30 23 74 W18G24 29.51R WCI 18 BERLIN LGT SNOW 30 24 78 NW15G25 29.44R WCI 19 WHITEFIELD NOT AVBL JAFFREY CLOUDY 30 21 69 NW13G26 29.55R WCI 20 KEENE CLOUDY 31 21 66 W8G16 29.62R LEBANON CLOUDY 31 18 58 NW16G26 29.60R WCI 20 MT WASHINGTON BLWGSNOW 9 9 100 NW75G94 N/A VSB 1/16WCI -23 $$ VTZ005-007-008-231500- VERMONT CITY SKY/WX TMP DP RH WIND PRES REMARKS ST JOHNSBURY N/A 26 19 74 MISG 29.58R MONTPELIER MIX PCPN 21 19 92 NW24G37 29.64R FOG WCI 4 BURLINGTON CLOUDY 25 16 68 NW12 29.73R WCI 14 $$ MAZ007-012-024-CTZ003-RIZ002-NYZ038-NYZ072-231500- SOUTHERN NEW ENGLAND AND NY CITY SKY/WX TMP DP RH WIND PRES REMARKS BOSTON PTSUNNY 39 26 59 W26G32 29.50R WORCESTER MIX PCPN 30 21 69 W26G39 29.53R WCI 16 NANTUCKET CLOUDY 35 28 75 W25G31 29.52R PROVIDENCE PTSUNNY 35 24 64 NW20G36 29.58R HARTFORD PTSUNNY 32 19 58 NW20G33 29.69R ALBANY PTSUNNY 29 17 61 NW25G35 29.78R WCI 14 NEW YORK CITY PTSUNNY 37 20 50 NW24G37 29.80R $$ ANZ081-ANZ082-ANZ150-NHZ014-MEZ023>029-231500- COASTAL MARINE OBSERVATIONS STATION/POSITION TIME TEMP WIND PRES WAVE AIR SEA DIR/SP/G HT/PER (UTC) (F) (DEG/KT/KT) (MB) (FT/S) MOUNT DESERT ROC 1400 37 280/ 21/ 23 988.8R MATINICUS ROCK 1300 38 310/ 24/ 26 988.5R ISLE OF SHOALS 1300 36 300/ 30/ 35 993.6R JEFFREYS LEDGE 1338 39 N/A 8/13 CASHES LEDGE BUO 1350 40 40 991.6R 9/13 $$ .............KEY.............. WCI - WIND CHILL TC - TEMPERATURE IN CELSIUS VSB - VISIBILITY IN MILES HX - HEAT INDEX FAIR- INDICATES FEW OR NO CLOUDS BELOW 12,000 FT, WITH NO SIGNIFICANT WEATHER AND/OR OBSTRUCTIONS TO VISIBILITY.

USA.gov is the U.S. government's official web portal to all federal, state and local government web resources and services.